Voltar ao catálogo

YAOGAN-31 D

AtivoMilitarLEO
NORAD 47532·PAYLOAD·🇨🇳 China

Lançado Jan 29, 2021 de Jiuquan Satellite Launch Center

Loading…

Próximas Passagens (próximas 24 horas)

TLE

AtualizadoSource: Space-Track

Época: Sep 14, 2026, 14:32 UTC

1 47532U 21007A   26257.60559483  .00000070  00000-0  24426-3 0  9991
2 47532  63.4016 273.3098 0183656   0.8175 359.3117 13.45453416276263

Acompanhe YAOGAN-31 D em tempo real com AllMySat

Download on the App Store